Location: Newark
(60.7728°N, 46.2261°E)
Time: 01:12:56
(UTC+00:00)

N. Korean satellite - Visible Passes

Search period start: 21 September 2019 00:00
Search period end: 01 October 2019 00:00
Orbit: 455 x 509 km, 97.2° (Epoch: 20 September)

Date Brightness Start Highest point End Pass type
(mag) Time Alt. Az. Time Alt. Az. Time Alt. Az.
24 Sep 10.2 01:41:33 10° ENE 01:42:53 12° E 01:44:13 10° ESE visible
27 Sep 9.8 01:58:29 10° NE 02:00:47 16° E 02:03:04 10° SE visible
28 Sep 10.6 01:34:44 10° ENE 01:35:14 10° E 01:35:43 10° E visible
28 Sep 10.7 15:27:41 10° W 15:28:32 11° W 15:29:24 10° WNW visible
30 Sep 9.5 02:15:48 10° NE 02:18:37 23° E 02:21:27 10° SSE visible
